Temperature
15 15 15 15 15 15 15 15 15 15 15 15 15 16 16 16 16 16 16 16 16 16 16 16 16 16 17 17 17 17 17 17 17 17 17 17 17 17 17 18 18 17 18
14 14 15 15 15 15 15 15 15 15 15 15 15 15 16 16 16 16 16 16 16 16 16 16 16 16 16 16 16 17 17 17 17 17 17 17 17 17 17 17 17 17 18
13 14 14 15 14 14 15 15 15 15 15 15 15 15 16 16 16 16 16 16 16 16 16 16 16 16 16 16 16 16 16 17 17 17 17 16 17 17 17 17 17 17 17
13 14 14 14 14 14 14 14 14 14 15 15 15 15 15 16 16 16 16 16 16 16 16 16 16 16 16 16 16 16 16 16 16 17 16 16 16 17 17 17 17 17 17
13 14 14 14 14 14 14 14 14 14 14 14 14 14 15 15 15 15 15 15 15 15 15 15 16 16 16 16 16 16 16 16 16 16 15 16 16 17 17 17 17 17 17
13 13 14 14 14 14 14 14 14 14 14 14 14 14 14 14 14 14 14 15 15 15 15 15 15 15 15 15 16 16 16 16 16 15 15 15 16 16 17 17 17 17 17
12 13 13 14 14 14 14 14 14 14 14 14 14 14 14 14 14 14 14 14 14 15 15 15 15 15 15 15 15 15 15 15 15 15 15 15 16 16 16 17 17 17 17
12 12 12 13 13 13 13 14 14 14 14 14 14 14 14 14 14 14 14 14 14 14 14 14 15 15 14 15 15 15 15 15 15 15 15 15 16 16 16 16 16 17 17
11 12 12 12 12 12 12 12 13 13 13 13 13 14 14 14 14 14 14 14 14 14 14 14 14 14 14 14 14 15 15 15 15 15 15 15 15 16 16 16 16 16 17
11 11 11 12 12 12 12 12 12 12 12 13 13 13 13 13 13 13 13 13 14 14 14 14 14 14 14 14 14 14 14 14 14 14 15 15 15 16 15 15 16 16 16
10 10 11 11 11 11 12 12 12 12 12 12 12 12 13 13 13 13 13 13 13 13 13 13 14 14 14 14 14 14 14 14 14 14 14 15 15 15 15 15 15 15 16
9 10 10 10 10 11 11 11 11 12 12 12 12 12 12 12 12 12 12 12 13 13 13 13 13 13 13 13 14 14 14 13 13 14 14 15 15 15 15 15 15 15 15
8 9 9 9 10 10 10 10 11 11 11 11 11 12 12 12 12 12 12 12 12 13 13 13 13 13 13 13 13 13 13 13 13 14 14 15 15 15 15 15 15 15 15
8 8 9 9 9 9 9 9 9 10 10 10 11 11 11 11 11 11 12 12 12 12 12 12 13 13 13 13 13 13 13 13 13 13 13 14 15 15 15 15 15 15 15
7 7 7 8 8 8 8 8 8 7 8 8 8 9 9 9 10 10 11 11 11 11 12 12 12 12 12 12 12 13 13 13 13 13 13 14 15 15 15 15 15 15 15
5 6 6 6 6 6 6 6 5 5 5 5 5 5 6 6 7 8 9 9 10 10 11 11 11 12 12 12 12 12 12 13 13 13 13 13 14 14 15 15 15 15 15
3 4 4 4 4 5 4 4 4 3 3 3 3 3 3 3 4 5 6 6 7 8 9 10 10 11 11 11 11 12 12 12 12 12 12 12 13 14 14 14 15 15 15
2 2 2 2 2 3 3 3 2 2 1 1 1 1 1 2 2 3 4 4 4 6 6 7 8 9 10 10 11 11 11 11 12 12 12 12 12 13 13 14 14 14 14
1 1 1 1 1 1 1 1 1 1 0 0 0 -0 0 1 1 2 2 2 3 4 4 4 5 6 8 9 10 10 10 11 11 11 12 12 12 13 13 13 14 14 14
0 -0 -0 -0 -0 -0 0 0 -0 -1 -1 -1 -1 -0 -0 -0 0 0 0 1 2 2 2 3 3 4 5 6 8 9 9 10 10 11 11 11 12 12 13 13 13 13 13
-1 -1 -1 -1 -1 -1 -1 -2 -2 -2 -2 -2 -2 -1 -1 -1 -1 -2 -2 -1 -0 0 1 1 1 3 4 5 6 7 9 9 10 10 10 11 11 12 12 13 12 12 12
-3 -3 -2 -2 -3 -3 -4 -4 -4 -4 -4 -4 -4 -3 -2 -2 -3 -3 -4 -3 -3 -2 -1 -1 -0 0 2 3 3 5 8 10 10 10 10 10 11 11 11 12 12 12 12
-4 -4 -4 -4 -4 -5 -5 -5 -5 -5 -5 -5 -5 -5 -4 -4 -4 -5 -5 -5 -4 -4 -4 -3 -2 -2 -1 0 1 3 6 10 11 11 10 10 10 11 11 11 12 12 12
-5 -5 -5 -5 -6 -6 -6 -7 -7 -7 -7 -7 -7 -7 -6 -6 -6 -6 -6 -5 -5 -5 -4 -4 -3 -3 -2 -2 -0 1 3 5 8 10 10 10 10 11 11 11 12 12 12
-5 -6 -6 -6 -7 -7 -7 -8 -8 -8 -8 -8 -8 -7 -7 -6 -6 -6 -6 -6 -6 -5 -5 -4 -3 -3 -2 -2 -1 -1 1 3 5 7 9 10 10 10 10 11 11 12 12
-6 -7 -7 -7 -8 -8 -8 -8 -9 -9 -9 -8 -8 -8 -8 -8 -7 -7 -7 -7 -7 -6 -5 -4 -3 -3 -2 -2 -2 -1 -1 1 3 6 7 9 10 10 10 10 11 11 12
Wind_Speed
16 13 13 12 11 10 10 11 11 11 11 8 7 7 7 7 7 6 6 5 5 5 5 4 3 3 2 2 2 1 1 1 1 1 3 5 6 7 7 6 5 5 6
18 15 17 15 13 12 12 12 12 12 12 10 9 9 9 9 9 9 8 8 7 7 7 7 6 6 5 4 4 3 3 2 1 1 2 6 6 6 7 6 5 4 5
22 22 24 23 18 15 13 13 12 12 12 12 11 11 11 11 11 11 11 10 10 10 10 10 10 9 8 7 6 5 5 4 4 3 4 6 7 7 7 7 5 4 6
23 26 30 31 27 21 18 16 14 14 14 13 13 13 12 12 12 12 12 12 12 12 12 12 12 11 10 8 8 7 7 7 7 6 8 6 6 7 7 7 7 6 6
23 26 32 34 34 32 28 24 20 18 17 15 15 15 15 14 14 14 13 13 13 13 13 12 12 12 12 10 10 10 10 9 9 10 8 6 6 6 7 8 8 7 7
24 27 32 35 35 36 35 34 31 27 24 21 19 18 18 17 16 16 15 15 14 13 12 12 11 11 11 11 11 11 11 9 11 12 9 8 8 7 8 9 8 8 8
25 28 31 35 34 34 35 34 34 33 31 28 26 24 21 19 18 18 17 16 15 14 13 11 10 9 9 10 11 10 10 9 12 11 10 10 8 6 10 10 10 10 9
26 28 30 33 33 33 34 34 32 32 31 30 30 28 26 22 19 18 18 16 15 14 13 12 10 9 8 8 8 8 7 8 12 12 12 11 9 8 12 13 12 12 11
28 29 29 30 30 29 29 31 31 31 31 29 30 30 27 24 22 19 18 17 16 15 14 13 12 11 9 8 7 6 5 6 11 10 11 11 8 10 13 15 15 14 13
27 28 29 30 29 28 26 27 27 27 29 28 29 30 27 24 23 22 20 20 19 17 15 14 13 12 11 10 8 7 6 7 12 11 10 9 7 9 11 13 16 16 14
25 26 27 29 29 28 25 24 24 24 26 26 26 28 24 21 20 20 21 22 22 19 16 15 14 13 12 13 12 9 9 10 10 9 10 5 5 10 11 11 15 17 17
24 23 25 26 27 26 23 22 20 20 21 22 23 24 21 20 18 19 20 21 22 21 17 14 14 14 14 13 13 12 11 11 10 10 8 6 8 11 12 12 13 17 19
21 21 23 24 25 25 21 20 18 18 18 19 21 23 21 19 18 18 17 17 18 18 16 15 13 12 12 11 10 10 10 9 9 9 9 9 10 11 12 13 14 17 20
20 22 22 24 24 24 22 19 18 17 17 17 19 21 20 16 16 17 15 16 15 14 15 14 11 12 13 13 13 13 12 10 9 8 8 8 10 12 13 15 15 16 20
21 22 21 24 24 24 21 19 18 17 17 18 17 18 20 17 15 16 15 16 16 15 14 13 12 12 12 12 12 12 13 13 12 11 8 9 12 13 14 15 16 17 19
21 21 21 23 24 24 21 20 18 18 18 18 17 19 20 18 17 16 15 15 15 16 17 15 14 12 11 10 11 12 13 13 13 12 11 10 13 14 14 16 17 18 19
19 20 20 21 24 24 22 21 19 18 19 18 18 19 20 20 20 18 14 13 14 17 18 15 15 12 11 11 12 13 12 13 12 13 13 12 11 14 16 16 17 18 19
19 19 19 20 22 23 21 20 19 19 19 17 17 18 20 21 21 19 14 13 17 17 14 12 12 12 11 11 11 11 11 11 14 14 13 13 12 12 13 17 17 18 19
19 19 20 20 21 22 21 20 19 19 18 18 17 17 19 20 21 19 15 15 18 14 12 12 12 12 13 12 12 12 12 12 13 13 14 14 14 13 13 13 17 19 20
19 20 20 20 22 22 19 18 16 17 16 16 16 18 20 19 21 19 15 17 17 13 12 13 15 13 13 13 13 14 14 14 13 13 14 14 13 14 15 15 14 16 21
20 20 21 21 21 19 16 16 16 15 14 14 16 20 20 20 21 18 15 16 15 13 15 16 14 15 13 12 12 13 15 17 17 14 14 14 14 14 14 14 14 14 14
18 19 19 20 20 18 16 15 14 15 13 14 17 19 20 21 21 18 17 15 15 15 16 16 15 13 13 11 10 10 10 14 15 15 15 15 15 14 14 14 15 14 14
18 19 18 20 19 18 20 15 14 13 13 13 15 14 20 22 21 20 19 17 16 15 14 16 15 15 13 13 11 8 8 10 10 12 15 16 16 15 14 13 15 15 16
17 17 18 19 18 18 19 16 18 14 15 17 15 15 20 21 21 20 20 19 17 15 16 16 15 14 14 13 12 11 13 14 11 10 9 12 15 15 15 12 13 14 15
16 16 16 18 17 18 18 17 17 16 15 15 16 18 18 18 20 21 21 20 17 15 17 18 17 16 13 13 12 12 14 14 17 15 15 12 11 12 12 13 11 11 13
16 15 16 17 17 18 18 18 18 19 19 19 19 18 17 15 16 20 22 20 19 16 17 18 17 18 15 15 14 13 13 12 13 14 17 17 14 12 12 11 11 10 10
Wind_Direction
348 355 357 360 4 0 356 355 356 357 355 358 1 360 358 358 359 358 356 349 343 335 327 312 295 290 285 273 250 210 171 162 169 200 192 178 168 165 161 160 184 157 129
352 7 7 3 359 355 351 349 348 345 348 352 352 348 342 338 334 330 326 323 319 310 300 292 281 270 263 252 241 225 201 182 164 130 175 184 177 182 181 187 236 126 149
4 11 13 9 1 353 349 345 340 337 335 335 336 333 329 325 322 318 314 313 315 313 300 289 281 272 264 253 242 233 221 207 194 171 206 205 181 186 191 192 206 168 172
12 19 18 18 15 9 359 350 342 336 330 326 323 320 316 312 310 308 308 308 310 314 307 291 279 273 265 257 247 243 235 221 209 202 217 206 196 172 195 199 206 200 190
21 25 23 24 25 24 19 11 0 350 340 330 322 315 309 303 301 299 299 300 303 306 305 292 276 267 261 251 244 244 242 231 215 223 226 212 212 175 204 207 213 211 203
27 28 28 28 28 28 27 25 21 14 4 353 342 331 319 308 301 298 296 294 293 297 298 294 282 269 258 247 240 239 239 231 221 228 224 219 217 193 215 214 216 214 211
29 28 29 29 28 28 27 26 25 22 20 15 7 356 342 325 313 304 297 297 292 289 291 291 285 274 261 247 238 234 232 223 232 230 226 224 224 210 228 220 214 213 212
30 28 27 26 26 26 27 25 24 22 20 18 14 8 360 348 333 319 308 303 301 293 289 287 285 276 265 251 240 231 220 226 228 227 224 226 216 226 238 229 215 212 211
30 28 24 22 20 20 22 22 21 21 19 17 15 9 3 359 353 343 331 319 310 300 293 288 282 277 266 256 245 226 211 226 244 231 226 227 203 230 246 233 215 211 211
27 25 21 19 16 14 13 15 14 16 15 13 13 9 5 1 359 354 350 344 331 314 298 290 283 276 266 257 247 230 215 230 239 234 231 223 198 239 257 236 217 211 211
24 21 17 15 12 9 7 6 7 9 10 9 8 5 3 0 359 353 352 349 345 334 314 294 283 279 272 251 239 234 231 241 237 238 234 213 219 246 256 243 226 216 212
17 14 13 12 9 6 3 1 1 2 3 5 4 2 359 356 354 352 346 349 345 341 328 307 289 275 261 251 226 217 238 238 243 237 230 189 234 248 251 247 237 226 218
13 12 10 9 7 5 0 358 357 356 356 357 360 359 356 354 351 351 348 347 344 343 340 329 309 284 268 259 256 240 240 245 242 240 229 192 229 245 249 247 243 233 224
12 10 6 6 5 2 359 355 354 353 352 351 353 356 355 351 349 348 342 341 340 340 336 331 321 304 286 268 256 252 247 241 242 243 235 197 230 242 247 246 245 239 227
10 6 3 2 2 359 357 354 352 351 349 345 347 351 352 348 345 343 337 336 334 335 332 327 320 313 299 285 269 258 252 248 245 243 237 211 229 240 244 245 244 241 231
6 2 360 359 359 357 355 353 349 347 345 343 344 345 347 346 341 337 332 331 330 332 328 321 316 310 300 288 277 267 260 254 249 245 246 230 223 233 240 242 242 241 235
3 360 359 356 355 355 352 350 347 344 343 341 340 340 345 344 339 335 329 326 329 328 323 319 316 311 304 295 281 271 264 259 254 250 247 248 242 226 228 237 240 240 238
2 359 357 356 353 353 350 346 344 342 341 339 338 339 344 342 341 335 328 325 328 324 320 318 315 313 306 297 285 274 266 260 258 253 249 245 246 247 231 224 232 236 238
2 358 356 356 354 351 348 344 341 341 339 339 339 341 342 340 341 335 327 327 328 324 320 317 316 313 305 298 287 276 265 259 257 254 249 246 243 242 246 228 220 230 234
0 357 356 354 353 350 347 343 341 340 339 338 339 340 339 338 338 334 328 329 329 324 323 321 315 309 302 295 288 277 266 259 254 252 250 247 241 239 239 243 235 228 226
357 356 355 353 351 351 349 344 341 339 336 336 337 336 335 335 335 333 329 328 327 323 321 317 316 312 306 304 292 278 263 254 250 248 245 245 241 238 237 237 239 239 227
355 354 352 351 348 349 347 340 336 332 332 333 334 332 333 334 333 332 331 329 325 321 317 317 317 311 305 301 298 291 269 255 241 240 241 240 241 238 236 234 234 234 237
355 354 350 348 345 347 345 341 339 337 336 339 337 333 332 330 329 329 329 328 323 320 313 312 310 304 303 301 287 278 273 259 258 237 235 237 237 237 236 233 231 232 233
352 351 348 346 345 346 345 344 343 341 340 336 333 328 328 328 327 326 327 326 322 317 311 307 303 298 294 290 288 271 266 276 276 260 236 234 238 237 233 229 229 228 231
349 349 347 345 345 346 346 345 342 340 338 333 333 330 331 328 327 326 327 325 321 316 310 306 301 293 285 279 278 278 278 273 261 260 258 247 234 233 234 230 227 226 227
349 349 347 345 346 347 346 345 343 340 338 335 336 334 333 329 327 327 327 324 320 316 312 308 303 296 286 275 270 267 265 265 261 254 251 251 248 238 230 230 227 224 223
Height
1573 1570 1567 1565 1563 1561 1560 1558 1557 1556 1555 1554 1553 1551 1550 1550 1549 1548 1547 1546 1546 1545 1544 1543 1543 1543 1542 1542 1541 1540 1540 1539 1539 1539 1539 1538 1538 1538 1539 1539 1539 1540 1540
1575 1572 1569 1567 1564 1562 1560 1559 1557 1556 1555 1554 1552 1551 1550 1549 1548 1547 1546 1546 1545 1544 1543 1543 1542 1541 1541 1540 1540 1540 1539 1539 1539 1538 1538 1538 1538 1538 1538 1539 1539 1541 1540
1576 1573 1570 1567 1565 1563 1561 1559 1557 1556 1555 1553 1552 1550 1549 1548 1547 1546 1545 1544 1543 1542 1542 1541 1540 1540 1539 1539 1539 1539 1538 1538 1538 1538 1538 1538 1538 1538 1538 1539 1539 1540 1540
1576 1573 1570 1567 1565 1563 1561 1560 1558 1556 1554 1553 1551 1550 1548 1547 1546 1545 1544 1542 1541 1541 1540 1539 1538 1538 1537 1537 1537 1537 1537 1537 1537 1537 1537 1538 1538 1537 1538 1538 1539 1539 1540
1577 1573 1570 1568 1565 1563 1561 1559 1557 1556 1554 1553 1551 1549 1548 1546 1545 1543 1542 1541 1540 1539 1538 1537 1536 1536 1535 1535 1535 1535 1535 1535 1535 1535 1536 1537 1537 1537 1537 1537 1538 1538 1539
1577 1574 1571 1568 1565 1563 1560 1558 1556 1554 1552 1551 1549 1548 1546 1545 1543 1542 1541 1539 1538 1537 1536 1535 1534 1533 1532 1532 1532 1532 1532 1532 1532 1533 1534 1535 1535 1536 1536 1537 1537 1537 1538
1578 1574 1571 1568 1566 1563 1561 1558 1556 1554 1551 1549 1547 1545 1544 1542 1541 1540 1538 1537 1536 1535 1534 1533 1532 1530 1530 1529 1529 1529 1529 1529 1530 1531 1531 1532 1533 1534 1535 1535 1536 1536 1537
1579 1576 1572 1569 1566 1563 1561 1558 1556 1554 1551 1549 1546 1544 1542 1540 1538 1537 1535 1534 1533 1532 1531 1530 1529 1528 1527 1526 1526 1526 1526 1526 1527 1528 1528 1529 1530 1532 1533 1534 1534 1535 1536
1581 1577 1573 1570 1568 1565 1562 1559 1556 1554 1551 1548 1546 1543 1541 1539 1537 1535 1533 1531 1530 1529 1528 1527 1526 1525 1525 1524 1523 1523 1523 1523 1524 1525 1525 1526 1527 1528 1530 1532 1533 1533 1534
1582 1578 1575 1572 1569 1566 1563 1560 1557 1554 1551 1548 1545 1542 1539 1537 1535 1532 1530 1528 1526 1525 1524 1523 1522 1522 1521 1520 1520 1520 1519 1519 1521 1521 1521 1522 1523 1525 1527 1529 1530 1531 1532
1582 1579 1576 1573 1570 1567 1564 1560 1557 1553 1550 1547 1543 1540 1538 1535 1532 1530 1527 1525 1523 1521 1520 1519 1518 1518 1517 1516 1516 1516 1516 1516 1517 1517 1517 1518 1519 1521 1523 1525 1527 1528 1530
1583 1581 1578 1574 1571 1567 1564 1560 1556 1553 1549 1545 1542 1538 1535 1532 1530 1527 1524 1522 1520 1518 1516 1515 1514 1513 1513 1513 1512 1511 1512 1513 1513 1513 1513 1513 1515 1517 1519 1521 1523 1525 1527
1587 1583 1579 1575 1571 1567 1563 1559 1555 1551 1547 1544 1540 1536 1533 1530 1527 1524 1521 1519 1516 1514 1513 1511 1510 1510 1509 1508 1508 1508 1508 1509 1509 1509 1509 1508 1510 1512 1514 1516 1519 1521 1523
1588 1583 1579 1575 1571 1566 1562 1558 1554 1549 1545 1541 1537 1533 1530 1526 1523 1520 1517 1515 1513 1511 1509 1507 1506 1505 1505 1504 1503 1503 1503 1503 1504 1504 1504 1503 1505 1506 1508 1511 1513 1516 1519
1588 1583 1579 1574 1569 1565 1560 1556 1551 1547 1542 1538 1534 1530 1526 1522 1519 1516 1513 1510 1508 1506 1505 1503 1502 1501 1500 1499 1499 1498 1498 1499 1499 1499 1499 1498 1500 1501 1503 1505 1507 1511 1514
1587 1583 1578 1573 1568 1563 1558 1553 1548 1544 1540 1535 1531 1527 1523 1519 1515 1511 1508 1505 1503 1501 1499 1498 1497 1495 1494 1494 1493 1493 1493 1493 1494 1494 1494 1494 1494 1495 1497 1499 1501 1505 1508
1588 1583 1577 1572 1566 1561 1556 1550 1546 1541 1537 1532 1528 1524 1520 1516 1511 1507 1504 1500 1497 1495 1493 1492 1491 1490 1489 1488 1487 1487 1487 1487 1488 1488 1489 1488 1489 1489 1491 1493 1495 1498 1502
1588 1582 1576 1570 1564 1559 1553 1548 1543 1538 1534 1529 1525 1520 1516 1512 1508 1504 1500 1497 1493 1489 1487 1485 1484 1483 1482 1482 1481 1481 1481 1481 1481 1482 1482 1482 1483 1484 1485 1486 1489 1492 1495
1587 1581 1575 1569 1563 1557 1551 1545 1540 1535 1531 1526 1522 1517 1512 1507 1503 1500 1496 1493 1488 1485 1482 1480 1478 1476 1475 1474 1474 1474 1474 1474 1475 1475 1476 1476 1476 1477 1479 1481 1482 1485 1488
1587 1581 1575 1568 1562 1555 1549 1542 1537 1532 1527 1523 1519 1514 1509 1504 1500 1495 1492 1488 1484 1481 1477 1474 1472 1470 1468 1467 1466 1466 1466 1467 1467 1468 1469 1470 1470 1471 1472 1474 1476 1478 1481
1586 1579 1573 1566 1560 1553 1546 1539 1533 1528 1523 1519 1515 1511 1506 1501 1497 1492 1488 1484 1480 1477 1473 1469 1466 1463 1462 1462 1460 1458 1458 1459 1459 1460 1461 1462 1463 1464 1465 1467 1470 1472 1475
1585 1578 1571 1565 1558 1552 1545 1539 1533 1527 1522 1517 1511 1507 1503 1498 1494 1490 1485 1481 1477 1472 1468 1465 1462 1458 1456 1457 1457 1455 1452 1452 1450 1451 1453 1454 1456 1458 1459 1460 1462 1465 1468
1583 1576 1570 1563 1557 1551 1544 1537 1531 1525 1519 1514 1508 1503 1499 1495 1491 1487 1482 1478 1473 1469 1465 1461 1458 1454 1452 1450 1451 1452 1449 1444 1445 1445 1445 1446 1448 1450 1452 1453 1455 1458 1461
1582 1575 1568 1562 1555 1549 1542 1535 1529 1523 1518 1512 1507 1501 1496 1492 1487 1483 1479 1474 1470 1465 1461 1457 1454 1451 1447 1444 1443 1444 1444 1444 1442 1439 1439 1439 1441 1442 1444 1446 1447 1450 1453
1581 1573 1567 1560 1554 1547 1541 1534 1528 1523 1517 1511 1505 1499 1493 1488 1483 1479 1475 1470 1465 1461 1457 1453 1449 1446 1443 1439 1437 1436 1436 1435 1436 1436 1434 1434 1435 1435 1437 1439 1440 1442 1445
1579 1572 1565 1558 1552 1546 1539 1533 1527 1521 1515 1509 1503 1496 1490 1484 1479 1475 1470 1465 1461 1456 1452 1447 1443 1439 1436 1433 1430 1428 1428 1428 1428 1429 1428 1428 1429 1430 1431 1432 1433 1435 1437